Voltar ao catálogo

STARLINK-4467

AtivoComunicaçõesSSO
NORAD 53686·PAYLOAD·🇺🇸 United States

Lançado Aug 31, 2022 de Vandenberg Space Force Base

Loading…

Próximas Passagens (próximas 24 horas)

TLE

AtualizadoSource: CelesTrak SupGP

Época: Sep 14, 2026, 21:09 UTC

1 53686C 22105AQ  26257.88173611 -.00024984  00000+0 -17350-2 0  2578
2 53686  97.2842 131.9272 0002265  84.8963  41.6301 15.05660749    19

Acompanhe STARLINK-4467 em tempo real com AllMySat

Download on the App Store